OSCAR 7 (AO-7) 1 07530U 74089B 26120.59626755 -.00000031 00000+0 96085-4 0 9995 2 07530 101.9926 133.3432 0011993 220.6153 258.4322 12.53697390354559 PHASE 3B (AO-10) 1 14129U 83058B 26118.35311208 -.00000137 00000+0 00000+0 0 9992 2 14129 25.8946 227.8674 6028461 101.9264 327.7175 2.05873308294462 UOSAT 2 (UO-11) 1 14781U 84021B 26120.63125062 .00001359 00000+0 14431-3 0 9995 2 14781 97.8024 86.7520 0007351 353.7891 6.3235 14.90668042250043 LUSAT (LO-19) 1 20442U 90005G 26120.59949826 .00000136 00000+0 65224-4 0 9991 2 20442 98.8880 141.0870 0011337 351.5187 8.5804 14.34107894895571 EYESAT A (AO-27) 1 22825U 93061C 26120.59124487 .00000109 00000+0 58602-4 0 9993 2 22825 98.6901 188.0163 0007443 235.3832 124.6649 14.30928987700195 ITAMSAT (IO-26) 1 22826U 93061D 26120.44501262 .00000109 00000+0 57896-4 0 9992 2 22826 98.6848 187.7827 0008183 217.8155 142.2454 14.31354481700489 RADIO ROSTO (RS15) 1 23439U 94085A 26120.40125597 -.00000033 00000+0 27135-3 0 9998 2 23439 64.8209 20.4995 0154593 12.5815 347.8901 11.27583830290517 JAS-2 (FO-29) 1 24278U 96046B 26120.47426956 .00000013 00000+0 50669-4 0 9995 2 24278 98.5296 335.8670 0349179 220.1294 137.3578 13.53271984466710 TECHSAT 1B (GO-32) 1 25397U 98043D 26120.43948020 .00000063 00000+0 47326-4 0 9995 2 25397 99.0062 111.9975 0001610 35.8621 324.2665 14.24418789444536 ISS (ZARYA) 1 25544U 98067A 26120.52250176 .00006189 00000+0 12023-3 0 9993 2 25544 51.6315 176.0292 0007158 7.8188 352.2911 15.49033593564362 PCSAT (NO-44) 1 26931U 01043C 26120.38474986 .00000155 00000+0 88631-4 0 9999 2 26931 67.0526 7.9102 0006454 264.0053 96.0313 14.31937124283603 SAUDISAT 1C (SO-50) 1 27607U 02058C 26120.61380811 .00001265 00000+0 16633-3 0 9991 2 27607 64.5517 276.1629 0075618 271.1171 88.1272 14.82940590257400 CUTE-1 (CO-55) 1 27844U 03031E 26120.61928520 .00000312 00000+0 15395-3 0 9997 2 27844 98.6753 129.7745 0008875 330.4565 29.6111 14.24305462184907 CUBESAT XI-IV (CO-57) 1 27848U 03031J 26120.58395695 .00000262 00000+0 13413-3 0 9991 2 27848 98.6788 129.4909 0009129 349.8845 10.2148 14.23594639184604 MOZHAETS 4 (RS22) 1 27939U 03042A 26120.61250030 .00000739 00000+0 12220-3 0 9995 2 27939 98.3465 303.6310 0012451 62.4503 25.9615 14.73379983208547 CUBESAT XI-V 1 28895U 05043F 26120.43036116 .00001517 00000+0 24696-3 0 9992 2 28895 98.2930 275.0681 0013971 2.5431 357.5844 14.72503421 94727 CUTE-1.7+APD II (CO-65) 1 32785U 08021C 26120.57822720 .00004835 00000+0 30988-3 0 9990 2 32785 97.8249 101.0318 0008843 179.6083 180.5154 15.08992068978014 SEEDS II (CO-66) 1 32791U 08021J 26120.45175439 .00020092 00000+0 67012-3 0 9993 2 32791 97.7523 116.1352 0005105 108.3124 251.8672 15.31103491979987 YUBILEINY (RS30) 1 32953U 08025A 26120.53591584 .00000028 00000+0 12623-3 0 9994 2 32953 82.5081 25.0777 0020600 56.2206 304.0833 12.43177720813776 KKS-1 (KISEKI) 1 33499U 09002H 26120.48845675 .00001478 00000+0 18858-3 0 9999 2 33499 98.1194 42.1798 0009350 85.4682 274.7598 14.82997252929127 SWISSCUBE 1 35932U 09051B 26120.48017014 .00001121 00000+0 23141-3 0 9991 2 35932 98.4066 27.5346 0007117 12.5716 347.5661 14.62386422882189 BEESAT-1 1 35933U 09051C 26120.25965323 .00000933 00000+0 19747-3 0 9999 2 35933 98.3995 27.0453 0005916 28.7361 331.4164 14.61639513882185 ITUPSAT1 1 35935U 09051E 26120.27721315 .00000867 00000+0 18924-3 0 9996 2 35935 98.4079 26.3052 0008282 35.5769 324.5981 14.60366036881742 XIWANG-1 (HOPE-1) 1 36122U 09072B 26120.59243650 -.00000020 00000+0 64935-4 0 9990 2 36122 100.3990 75.1925 0007463 347.8709 12.2224 13.16438550786746 O/OREOS (USA 219) 1 37224U 10062C 26120.57735434 .00002067 00000+0 20159-3 0 9990 2 37224 71.9711 188.1650 0013851 165.0480 195.1103 14.93549499109532 JUGNU 1 37839U 11058B 26120.64927935 .00000469 00000+0 10539-3 0 9990 2 37839 19.9604 237.2363 0018452 271.8214 120.1143 14.13762363752295 SRMSAT 1 37841U 11058D 26120.64063082 .00000431 00000+0 90343-4 0 9998 2 37841 19.9736 347.2598 0011743 41.3226 351.6382 14.11564464751098 STRAND-1 1 39090U 13009E 26120.43426229 .00000307 00000+0 11773-3 0 9998 2 39090 98.3914 301.8464 0009001 21.7835 338.3733 14.37134399690200 ZACUBE-1 (TSHEPISOSAT) 1 39417U 13066B 26120.40955899 .00005584 00000+0 43585-3 0 9999 2 39417 97.8125 82.4893 0043674 53.2749 307.2473 15.00793807673569 GOMX-1 1 39430U 13066Q 26120.51682591 .00001486 00000+0 23032-3 0 9994 2 39430 97.6519 323.9831 0127688 230.2625 128.7276 14.69275071662918 CUBEBUG-2 (LO-74) 1 39440U 13066AA 26120.42970364 .00002755 00000+0 25963-3 0 9998 2 39440 97.8881 69.2303 0057708 184.2052 175.8690 14.93419487669866 FUNCUBE-1 (AO-73) 1 39444U 13066AE 26120.45083755 .00009895 00000+0 62276-3 0 9994 2 39444 97.8252 90.9324 0037046 9.4409 350.7507 15.08828815672460 UWE-3 1 39446U 13066AG 26120.41818920 .00004687 00000+0 40581-3 0 9991 2 39446 97.8667 76.1969 0051045 118.0488 242.5909 14.96624293670431 UNISAT-6 1 40012U 14033C 26120.66090376 .00003081 00000+0 33610-3 0 9993 2 40012 97.7816 274.2347 0044374 223.7763 135.9933 14.87962062639093 DUCHIFAT-1 1 40021U 14033M 26120.11081618 .00081743 00000+0 11439-2 0 9997 2 40021 98.0526 172.8560 0004626 220.2284 139.8628 15.56524933648251 QB50P1 1 40025U 14033R 26120.48778258 .00009236 00000+0 46376-3 0 9990 2 40025 98.0983 128.3154 0009745 39.1571 321.0364 15.17502796645798 LILACSAT-2 1 40908U 15049K 26120.58300029 .00017927 00000+0 32241-3 0 9998 2 40908 97.4716 155.6566 0008656 73.9776 286.2428 15.49864518588379 FOX-1A (AO-85) 1 40967U 15058D 26120.25537374 .00003818 00000+0 34672-3 0 9996 2 40967 64.7757 67.9049 0128629 75.3677 286.1655 14.90672462106429 CAS-2T & KS-1Q 1 41847U 16066G 26120.44803345 .00000652 00000+0 10193-3 0 9994 2 41847 98.3830 196.7230 0340923 274.4340 81.7982 14.44572896497904 RADFXSAT (FOX-1B) 1 43017U 17073E 26120.56760982 .00009642 00000+0 42505-3 0 9996 2 43017 97.4776 348.7762 0154191 132.5723 228.8640 15.11842589458199 DIWATA-2B 1 43678U 18084H 26120.61768073 .00002281 00000+0 18741-3 0 9994 2 43678 98.1069 314.7988 0012904 334.2272 25.8306 15.00213077409083 ES'HAIL 2 1 43700U 18090A 26120.49191795 .00000147 00000+0 00000+0 0 9998 2 43700 0.0137 266.9736 0001700 165.7205 348.6817 1.00277015 27199 FOX-1CLIFF (AO-95) 1 43770U 18099N 26120.14912640 .00011872 00000+0 46841-3 0 9990 2 43770 97.4423 180.6034 0009974 149.6725 210.5092 15.25656511405899 ITASAT 1 43786U 18099AE 26120.58347617 .00006702 00000+0 32799-3 0 9994 2 43786 97.4069 173.0576 0013688 152.7861 207.4093 15.18431286405687 JY1SAT (JO-97) 1 43803U 18099AX 26120.44163872 .00018306 00000+0 59148-3 0 9998 2 43803 97.4165 183.1590 0007242 87.0718 273.1353 15.32125843406317 UWE-4 1 43880U 18111E 26120.27520350 .00033104 00000+0 74416-3 0 9995 2 43880 97.5865 46.5727 0010273 127.1071 233.1116 15.43217639403384 TIANYAN 01 1 44881U 19093C 26120.52066606 .00000444 00000+0 56246-4 0 9997 2 44881 97.7552 193.9138 0012137 241.5791 118.4202 14.86439991344338 RS-44 & BREEZE-KM R/B 1 44909U 19096E 26120.62724622 .00000020 00000+0 41717-4 0 9998 2 44909 82.5258 11.3107 0216386 255.5417 102.1587 12.79747949296264 SALSAT 1 46495U 20068K 26120.45042489 .00008489 00000+0 30299-3 0 9995 2 46495 97.8854 120.6367 0011665 107.7663 252.4849 15.29083608308068 XW-3 (CAS-9) 1 50466U 21131B 26120.64050645 .00000611 00000+0 20260-3 0 9990 2 50466 98.4957 213.2950 0003091 229.5193 130.5727 14.41311187228267 GREENCUBE (IO-117) 1 53109U 22080E 26119.47010391 -.00000003 00000+0 00000+0 0 9996 2 53109 70.1461 315.1961 0008895 300.7857 59.1927 6.42583316 88934 UMKA 1 (RS40S) 1 57172U 23091G 26120.58016625 .00006350 00000+0 29519-3 0 9993 2 57172 97.5088 179.4714 0011250 287.0872 72.9131 15.20274303156773 CUBESX-HSE 3 (RS42S) 1 57178U 23091N 26120.57970412 .00013510 00000+0 46674-3 0 9998 2 57178 97.5125 185.6036 0009498 257.1572 102.8607 15.30015947157144 MONITOR-3 (RS58S) 1 57180U 23091Q 26120.63414845 .00010298 00000+0 39207-3 0 9995 2 57180 97.5117 183.7591 0010276 265.1712 94.8353 15.26886565157037 MONITOR-4 (RS57S) 1 57182U 23091S 26120.61617486 .00010378 00000+0 39393-3 0 9996 2 57182 97.5113 183.7094 0010243 265.6394 94.3674 15.26982924157035 MONITOR-2 (RS39S) 1 57184U 23091U 26120.60925491 .00004659 00000+0 22919-3 0 9996 2 57184 97.5111 179.2067 0009627 278.9005 81.1139 15.18467131156730 SVYATOBOR 1 (RS60S) 1 57187U 23091X 26120.59044437 .00009616 00000+0 37865-3 0 9993 2 57187 97.5124 184.1668 0008025 255.9122 104.1224 15.25800928157055 VIZARD-METEO (RS38S) 1 57189U 23091Z 26120.63236377 .00016695 00000+0 50090-3 0 9996 2 57189 97.5120 189.2157 0006493 229.9986 130.0687 15.34517994157394 POLYTECH-UNIVERSE 3 (R*) 1 57191U 23091AB 26120.57678208 .00005119 00000+0 24977-3 0 9999 2 57191 97.5087 178.6797 0014027 297.4635 62.5172 15.18663384156725 UTMN 2 (RS27S) 1 57203U 23091AP 26120.62386472 .00012997 00000+0 43760-3 0 9991 2 57203 97.5119 187.2234 0006999 240.0301 120.0246 15.30881476157260 KUZGTU 1 (RS47S) 1 57217U 23091AV 26120.53045352 .00012410 00000+0 44567-3 0 9991 2 57217 97.5098 184.5586 0009606 261.8480 98.1670 15.28769493157096 SONATE-2 1 59112U 24043Q 26120.38537620 .00040443 00000+0 59507-3 0 9999 2 59112 97.5479 267.9964 0006533 23.0616 337.0930 15.55323705120452 MESAT1 1 60209U 24125G 26120.59552322 .00049459 00000+0 64598-3 0 9990 2 60209 97.2362 337.1535 0011239 42.2597 317.9523 15.58447781102148 OOV-CUBE (TUBSAT-30) 1 60240U 24128F 26120.34303327 .00002536 00000+0 20062-3 0 9993 2 60240 61.9968 32.3719 0050141 123.2570 237.3341 15.02531007 98924 COLIBRI-S (RS67S) 1 61746U 24199M 26120.57471043 .00022132 00000+0 45791-3 0 9999 2 61746 97.3067 354.0509 0010786 94.2442 266.0041 15.45742621130056 HORS 3 (RS81S) 1 61753U 24199U 26120.61098703 .00033956 00000+0 56766-3 0 9990 2 61753 97.3050 355.6060 0009250 98.2864 261.9438 15.51794593130170 HORS 4 (RS82S) 1 61754U 24199V 26120.57009642 .00045809 00000+0 66880-3 0 9998 2 61754 97.3007 356.4960 0008353 94.7278 265.4931 15.55492751130233 HORIZON (RS59S) 1 61757U 24199Y 26120.60899473 .00482272 95375-4 12828-2 0 9999 2 61757 97.2905 2.4774 0004688 130.1757 229.9930 15.94571418130625 ARCTICSAT 1 (RS74S) 1 61762U 24199AD 26120.50559235 .00209619 00000+0 11273-2 0 9994 2 61762 97.2951 1.2651 0005881 94.5050 265.6889 15.79626049130532 SIT-2086 1 61764U 24199AF 26120.59688610 .00024371 00000+0 43272-3 0 9990 2 61764 97.3025 356.2244 0008647 85.0183 275.2056 15.50163941127055 HYPERVIEW 1G (RS66S) 1 61772U 24199AP 26120.58751286 .00086956 00000+0 84989-3 0 9995 2 61772 97.2978 358.2776 0009065 96.0705 264.1588 15.65839180127204 ALTAIR (RS65S) 1 61779U 24199AW 26120.57231906 .00012184 00000+0 34733-3 0 9997 2 61779 97.3098 350.2538 0014755 114.6203 245.6580 15.36105380129805 ASRTU-1 (AO-123) 1 61781U 24199AY 26120.58680085 .00008300 00000+0 24609-3 0 9993 2 61781 97.3069 349.6955 0015732 116.8757 243.4097 15.34966487126622 TUSUR GO (RS78S) 1 61782U 24199AZ 26120.59736040 .00946438 46335-3 15349-2 0 9996 2 61782 97.2855 1.6534 0005076 160.7847 199.3626 16.03496221127439 SAMSAT-IONOSPHERE (RS7*) 1 61784U 24199BB 26120.58452681 .00041710 00000+0 65050-3 0 9992 2 61784 97.3025 355.4827 0011529 98.6303 261.6257 15.53661319130165 RTU MIREA 1 (RS51S) 1 61785U 24199BC 26120.63601907 .00053252 00000+0 75395-3 0 9993 2 61785 97.3019 356.1556 0011402 96.3272 263.9282 15.56259911127068 TEVEL2-4 1 63213U 25052D 26120.62070811 .00018444 00000+0 58131-3 0 9996 2 63213 97.3962 16.9829 0000347 316.1175 44.0040 15.32945027 62824 TEVEL2-5 1 63214U 25052E 26120.44039566 .00019688 00000+0 62327-3 0 9992 2 63214 97.3960 16.7632 0000428 311.7824 48.3381 15.32791045 62795 TEVEL2-6 1 63215U 25052F 26120.64742009 .00019145 00000+0 60679-3 0 9994 2 63215 97.3962 16.9554 0000496 308.8887 51.2311 15.32759360 62828 TEVEL2-1 1 63217U 25052H 26120.46497484 .00019231 00000+0 61874-3 0 9994 2 63217 97.3936 16.4513 0001070 345.5359 14.5852 15.32275390 62785 TEVEL2-3 1 63218U 25052J 26120.65708406 .00018565 00000+0 59650-3 0 9993 2 63218 97.3940 16.6597 0001079 343.6471 16.4736 15.32327642 62812 TEVEL2-2 1 63219U 25052K 26120.66141397 .00018724 00000+0 60232-3 0 9990 2 63219 97.3937 16.6490 0001079 344.9311 15.1898 15.32287401 62811 TEVEL2-9 1 63237U 25052AD 26120.44881295 .00017886 00000+0 60935-3 0 9992 2 63237 97.4000 15.9099 0004768 328.4859 31.6096 15.30434540 62721 TEVEL2-7 1 63238U 25052AE 26120.21958078 .00016618 00000+0 57106-3 0 9990 2 63238 97.4003 15.6165 0004923 329.3629 30.7323 15.30168799 62682 TEVEL2-8 1 63239U 25052AF 26120.61966130 .00016204 00000+0 55704-3 0 9996 2 63239 97.3999 15.9936 0004838 329.1455 30.9500 15.30162602 62748 HADES-ICM 1 63492U 25052BN 26120.17329350 .00491395 00000+0 25041-2 0 9993 2 63492 97.3820 23.2455 0004470 153.3500 206.7998 15.80099034 63209 INNOSAT 16 (RS92S7) 1 64878U 25155C 26120.63318636 .00006949 00000+0 28161-3 0 9996 2 64878 97.4533 87.9425 0010499 4.7540 355.3795 15.24922102 73425 GEOSCAN 6 (RS92S6) 1 64879U 25155D 26120.62467537 .00011268 00000+0 39959-3 0 9998 2 64879 97.4528 89.0364 0007509 3.0684 357.0601 15.29222661 73494 GEOSCAN 1 (RS92S1) 1 64880U 25155E 26120.57901272 .00011640 00000+0 40619-3 0 9992 2 64880 97.4526 89.1000 0007443 3.7409 356.3886 15.29739722 73499 239ALFEROV (RS61S) 1 64881U 25155F 26120.61188875 .00016545 00000+0 54326-3 0 9993 2 64881 97.4527 89.5457 0007002 4.8946 355.2362 15.31632714 73527 GEOSCAN 2 (RS92S2) 1 64890U 25155Q 26120.58130375 .00012884 00000+0 44538-3 0 9997 2 64890 97.4523 89.2359 0006314 351.6930 8.4204 15.30028914 73502 GEOSCAN 5 (RS92S5) 1 64891U 25155R 26120.61083737 .00016366 00000+0 53210-3 0 9997 2 64891 97.4519 89.6639 0006243 14.6984 345.4438 15.31958642 73536 GEOSCAN 4 (RS92S4) 1 64892U 25155S 26120.59934718 .00016740 00000+0 54204-3 0 9999 2 64892 97.4522 89.6882 0006243 15.0288 345.1138 15.32085196 73533 GEOSCAN 3 (RS92S3) 1 64893U 25155T 26120.59153879 .00020400 00000+0 62596-3 0 9992 2 64893 97.4512 89.9838 0006015 18.8092 341.3371 15.33763763 73551 INNOSAT 3 (RS92S0) 1 64894U 25155U 26120.62020930 .00038113 00000+0 93651-3 0 9994 2 64894 97.4471 91.1087 0005230 29.5680 330.5861 15.40546928 73630 KNACKSAT-2 1 67683U 98067XZ 26120.43136678 .00039416 00000+0 55885-3 0 9995 2 67683 51.6295 173.9221 0012627 20.5664 339.5833 15.55969614 12835